| time (UTC) | temp F | wind direction | speed MPH | gust MPH | rain 1hr in | rain 24hr in | rain mn in | humidity % | barometer mb |
| 20260507130054 | 57 | 228 | 2.0 | 6.0 | 0.00 | 0.00 | 0.00 | 65 | 1016.5 |
| 20260507124541 | 56 | 148 | 0.0 | 1.0 | 0.00 | 0.00 | 0.00 | 66 | 1016.7 |
| 20260507123044 | 57 | 0 | 0.0 | 2.0 | 0.00 | 0.00 | 0.00 | 65 | 1016.6 |
| 20260507121543 | 57 | 0 | 0.0 | 3.0 | 0.00 | 0.00 | 0.00 | 64 | 1016.6 |
| 20260507120046 | 57 | 260 | 2.0 | 5.0 | 0.00 | 0.00 | 0.00 | 64 | 1016.4 |
| 20260507114547 | 58 | 179 | 2.0 | 6.0 | 0.00 | 0.00 | 0.00 | 64 | 1016.2 |
| 20260507113040 | 58 | 232 | 2.0 | 6.0 | 0.00 | 0.00 | 0.00 | 63 | 1016.3 |
| 20260507111544 | 58 | 240 | 1.0 | 9.0 | 0.00 | 0.00 | 0.00 | 63 | 1016.4 |
| 20260507110059 | 59 | 158 | 3.0 | 7.0 | 0.00 | 0.00 | 0.00 | 62 | 1016.2 |
| 20260507104545 | 59 | 188 | 2.0 | 7.0 | 0.00 | 0.00 | 0.00 | 62 | 1016.1 |
| 20260507103041 | 59 | 184 | 3.0 | 9.0 | 0.00 | 0.00 | 0.00 | 62 | 1016.0 |
| 20260507101546 | 59 | 211 | 4.0 | 11.0 | 0.00 | 0.00 | 0.00 | 62 | 1016.0 |
| 20260507100044 | 59 | 205 | 2.0 | 8.0 | 0.00 | 0.00 | 0.00 | 62 | 1016.2 |
| 20260507094545 | 59 | 218 | 4.0 | 7.0 | 0.00 | 0.00 | 0.00 | 62 | 1016.3 |
| 20260507093047 | 60 | 232 | 3.0 | 9.0 | 0.00 | 0.00 | 0.00 | 61 | 1016.4 |
| 20260507091611 | 60 | 207 | 2.0 | 10.0 | 0.00 | 0.00 | 0.00 | 60 | 1016.3 |
| 20260507090055 | 61 | 223 | 1.0 | 4.0 | 0.00 | 0.00 | 0.00 | 60 | 1016.4 |
| 20260507084555 | 61 | 162 | 2.0 | 8.0 | 0.00 | 0.00 | 0.00 | 60 | 1016.4 |
| 20260507083043 | 61 | 210 | 6.0 | 11.0 | 0.00 | 0.00 | 0.00 | 59 | 1016.2 |
| 20260507081548 | 62 | 224 | 5.0 | 12.0 | 0.00 | 0.00 | 0.00 | 59 | 1016.3 |
| 20260507080230 | 62 | 228 | 1.0 | 6.0 | 0.00 | 0.00 | 0.00 | 59 | 1016.2 |
| 20260506160559 | 70 | 139 | 2.0 | 7.0 | 0.00 | 0.00 | 0.00 | 50 | 1016.0 |
| 20260506154541 | 69 | 0 | 2.0 | 12.0 | 0.00 | 0.00 | 0.00 | 52 | 1016.1 |
| 20260506153045 | 68 | 205 | 2.0 | 9.0 | 0.00 | 0.00 | 0.00 | 53 | 1016.4 |
| 20260506151543 | 67 | 194 | 2.0 | 5.0 | 0.00 | 0.00 | 0.00 | 54 | 1016.4 |
| 20260506150053 | 66 | 229 | 3.0 | 6.0 | 0.00 | 0.00 | 0.00 | 57 | 1016.3 |
| 20260506144559 | 65 | 240 | 2.0 | 6.0 | 0.00 | 0.00 | 0.00 | 58 | 1016.3 |
| 20260506143052 | 64 | 158 | 3.0 | 7.0 | 0.00 | 0.00 | 0.00 | 61 | 1016.0 |
| 20260506141545 | 62 | 208 | 5.0 | 8.0 | 0.00 | 0.00 | 0.00 | 62 | 1016.1 |
| 20260506140058 | 62 | 225 | 2.0 | 10.0 | 0.00 | 0.00 | 0.00 | 65 | 1016.1 |
| 20260506134544 | 61 | 198 | 3.0 | 10.0 | 0.00 | 0.00 | 0.00 | 65 | 1015.9 |
| 20260506133101 | 60 | 204 | 4.0 | 8.0 | 0.00 | 0.00 | 0.00 | 66 | 1015.8 |